This is the latest recevied weather packets stored in our database for station/object KI7MOQ. If no packets are shown the sender has not sent any weather packets the latest 10 day(s).
| Time | Temp. | Humidity | Pressure | Rain* | Wind** | Luminosity | Snow |
|---|---|---|---|---|---|---|---|
| 1778181272 | 16.11° C | 56% | 1022.4 hPa | 0 mm | - | 265 W/m² | - |
| 1778180969 | 15.56° C | 57% | 1022.5 hPa | 0 mm | - | 622 W/m² | - |
| 1778180667 | 15.56° C | 57% | 1022.5 hPa | 0 mm | - | 618 W/m² | - |
| 1778180366 | 15.56° C | 58% | 1022.6 hPa | 0 mm | - | 599 W/m² | - |
| 1778180062 | 16.67° C | 58% | 1022.6 hPa | 0 mm | - | 545 W/m² | - |
| 1778179759 | 16.11° C | 58% | 1022.7 hPa | 0 mm | - | 581 W/m² | - |
| 1778179457 | 15.56° C | 59% | 1022.6 hPa | 0 mm | - | 545 W/m² | - |
| 1778179155 | 15.56° C | 58% | 1022.8 hPa | 0 mm | - | 578 W/m² | - |
| 1778178851 | 15° C | 60% | 1022.7 hPa | 0 mm | - | 262 W/m² | - |
| 1778178549 | 15° C | 61% | 1022.8 hPa | 0 mm | - | 42 W/m² | - |
| 1778178244 | 14.44° C | 63% | 1022.8 hPa | 0 mm | - | 38 W/m² | - |
| 1778177941 | 14.44° C | 63% | 1022.8 hPa | 0 mm | - | 70 W/m² | - |
| 1778177637 | 14.44° C | 63% | 1023 hPa | 0 mm | - | 35 W/m² | - |
| 1778177334 | 14.44° C | 62% | 1023.1 hPa | 0 mm | - | 54 W/m² | - |
| 1778177030 | 14.44° C | 64% | 1023.1 hPa | 0 mm | - | 74 W/m² | - |
| 1778176726 | 13.89° C | 65% | 1023.2 hPa | 0 mm | - | 139 W/m² | - |
| 1778176423 | 13.89° C | 65% | 1023.1 hPa | 0 mm | - | 66 W/m² | - |
| 1778176121 | 13.89° C | 65% | 1023.1 hPa | 0 mm | - | 57 W/m² | - |
| 1778175818 | 13.89° C | 64% | 1023.3 hPa | 0 mm | - | 78 W/m² | - |
| 1778175516 | 13.33° C | 66% | 1023.2 hPa | 0 mm | - | 68 W/m² | - |
| 1778175212 | 13.89° C | 65% | 1023.4 hPa | 0 mm | - | 65 W/m² | - |
| 1778174908 | 13.33° C | 70% | 1023.3 hPa | 0 mm | - | 64 W/m² | - |
| 1778174606 | 13.33° C | 69% | 1023.4 hPa | 0 mm | - | 65 W/m² | - |
| 1778174301 | 12.78° C | 69% | 1023.3 hPa | 0 mm | - | 125 W/m² | - |
| 1778173999 | 12.78° C | 71% | 1023.3 hPa | 0 mm | - | 401 W/m² | - |
* Rain latest hour (hover to see other rain measurements)
** Current wind speed in m/s (hover to see current wind gust speed)